RH
15 14 13 18 40 76 56 66 68 85 84 72 98 100 94 93 85 66 36 16 12 18 18 15 12 12 14 14 15 16 18 19 17 17 17 17 18 19 20 20 22 23 22
21 17 15 15 22 48 70 67 73 99 69 50 89 98 99 99 100 88 45 18 13 18 19 16 12 13 16 16 16 17 19 19 19 19 19 19 19 20 20 21 23 24 24
23 23 26 18 25 52 80 74 76 91 88 67 96 100 100 100 100 98 62 25 12 17 20 18 14 15 16 18 19 20 19 20 21 21 21 22 21 20 20 21 23 25 25
42 56 38 35 36 42 80 82 69 63 99 81 88 70 100 100 92 100 88 41 14 15 20 19 15 17 19 19 22 23 22 22 22 24 24 24 23 22 22 23 24 25 26
48 49 52 49 35 49 75 79 74 99 95 92 89 99 87 82 99 100 92 69 26 16 20 20 16 18 20 23 22 22 24 25 25 24 26 26 26 25 25 24 25 27 28
62 55 57 58 61 49 50 63 59 73 99 99 88 89 73 94 92 97 96 82 38 16 20 21 18 20 22 23 24 24 26 27 28 27 27 27 27 28 28 27 27 27 30
76 80 79 76 80 77 66 61 69 70 84 98 90 97 94 94 97 96 100 95 48 17 17 23 20 19 23 25 25 26 27 27 26 28 29 29 30 31 31 32 31 30 32
63 76 76 73 74 81 76 76 70 79 69 66 90 74 96 79 95 98 95 91 64 37 37 25 22 20 22 25 28 29 29 28 27 28 31 31 32 34 35 35 34 33 34
41 50 63 67 74 75 82 74 78 78 78 64 66 85 71 95 86 99 97 97 32 26 27 30 26 23 24 24 28 32 30 29 28 28 32 35 35 36 37 38 37 35 36
51 47 54 69 71 62 72 68 74 75 72 78 70 70 67 83 94 98 100 98 52 84 52 29 33 28 29 28 29 31 33 30 29 30 31 34 38 39 40 40 39 37 38
43 45 51 52 64 72 80 82 81 84 81 78 82 74 68 73 93 97 100 99 100 98 94 57 60 31 31 33 32 33 33 34 32 32 33 34 36 40 43 42 41 39 39
46 48 48 58 61 62 66 67 87 82 79 83 79 74 73 87 99 71 99 100 100 67 59 64 55 36 33 36 38 38 36 36 36 37 38 40 41 40 43 44 45 42 42
49 50 53 53 57 63 67 66 73 74 79 87 91 87 76 83 77 96 97 98 90 99 98 90 57 51 36 40 43 44 43 43 41 42 42 43 44 46 46 44 47 44 46
48 43 42 43 52 58 68 71 74 68 74 85 86 86 81 81 100 96 99 99 100 100 96 92 92 59 47 42 44 47 46 48 47 46 46 47 47 50 50 50 49 62 60
69 66 67 59 60 59 66 75 74 78 84 84 84 80 82 68 99 99 97 93 99 100 96 80 76 63 46 44 44 47 50 52 52 51 51 52 53 57 58 56 68 63 68
65 69 77 75 68 69 64 64 82 72 79 86 85 93 92 77 91 100 100 98 97 93 96 100 97 96 88 63 49 52 56 57 57 56 57 58 62 67 64 71 95 93 72
73 74 76 80 75 73 75 72 79 79 80 91 97 99 97 83 78 99 99 98 100 99 99 99 98 98 76 54 53 55 59 62 62 61 60 64 72 72 71 93 93 76 80
81 71 72 74 73 71 71 74 76 85 86 99 97 100 87 75 85 98 95 97 98 99 98 99 100 96 88 90 71 58 62 62 63 64 66 70 77 76 89 92 91 93 96
82 73 78 77 69 66 67 82 84 88 95 99 97 99 100 63 68 86 90 100 99 99 99 98 98 98 96 75 66 65 62 62 67 70 75 79 84 92 96 96 96 93 89
81 79 78 79 88 96 91 93 87 93 94 89 99 99 94 61 69 94 98 99 100 99 99 99 98 98 100 99 92 72 66 71 80 85 86 90 91 96 97 95 93 76 12
84 71 62 74 80 92 92 95 98 99 100 95 93 100 89 73 97 100 94 99 99 98 99 97 96 98 95 98 83 82 82 95 96 95 90 92 96 96 96 96 63 7 4
87 76 68 72 83 82 84 97 99 98 91 99 91 100 100 100 100 99 99 99 99 99 97 98 100 98 98 98 97 96 97 96 95 96 97 96 95 96 96 53 6 4 6
84 81 71 80 72 78 83 88 85 96 99 98 98 97 100 100 99 98 98 96 95 98 98 98 98 98 98 96 97 96 95 96 97 97 96 96 96 93 24 5 5 7 7
79 77 65 68 71 76 89 100 100 100 97 95 92 86 97 99 98 98 99 98 98 98 98 97 98 98 98 97 97 97 97 97 97 96 96 96 72 12 5 6 7 8 8
72 66 66 72 78 81 93 100 100 99 98 97 98 98 99 94 95 99 96 99 98 98 98 98 98 98 97 97 97 97 97 96 96 96 96 63 7 5 8 8 9 8 7
82 81 89 88 93 97 97 99 100 100 98 99 99 98 99 98 99 99 98 98 97 97 97 98 98 97 96 96 96 96 96 96 96 94 25 5 7 8 9 9 8 8 11
Wind_Speed
52 47 46 45 42 41 40 43 46 46 43 50 40 33 35 32 30 26 27 27 28 28 28 27 28 27 25 22 21 21 20 17 16 15 14 13 12 11 11 11 10 10 10
54 55 51 48 47 44 45 48 50 49 47 42 46 35 27 31 28 25 28 30 30 30 29 28 27 27 27 26 24 21 19 19 17 15 15 14 13 13 13 13 13 13 12
48 56 57 53 50 48 46 50 49 48 48 42 43 41 35 32 33 30 30 30 31 31 30 29 29 29 28 26 24 22 21 19 17 17 16 15 15 15 15 15 15 15 15
48 38 48 56 51 48 46 47 49 47 54 49 45 45 41 38 33 29 27 28 31 33 32 31 31 30 29 27 25 23 22 21 19 18 16 16 16 16 16 16 17 17 17
45 43 40 41 50 48 49 49 50 53 52 50 44 43 36 44 34 37 31 28 31 33 33 33 32 32 31 29 27 25 24 22 19 18 18 17 17 17 17 17 18 18 18
44 44 43 38 38 43 45 48 53 52 52 50 53 50 37 43 40 36 33 28 31 33 35 34 34 34 33 30 28 27 26 22 21 20 19 19 19 18 18 18 19 20 19
43 40 37 35 41 43 40 42 50 55 53 53 47 50 55 46 39 37 36 32 33 34 35 35 35 35 34 32 31 29 26 24 22 21 20 20 19 19 19 19 20 21 21
47 48 47 42 40 45 43 42 43 50 53 54 50 52 50 39 36 38 39 36 33 30 30 32 34 35 35 34 32 31 28 26 24 22 21 21 20 20 20 21 21 22 23
35 42 47 46 46 41 42 40 39 44 47 48 50 54 48 48 41 39 36 38 31 31 33 33 35 36 36 36 34 31 29 27 25 24 23 21 21 21 21 22 22 22 24
29 35 39 51 46 46 46 43 39 40 42 43 45 45 49 40 44 41 36 34 34 35 33 34 36 39 40 38 36 33 30 28 27 26 24 23 22 22 22 22 23 23 24
26 33 33 38 44 40 42 42 40 40 38 36 37 37 42 48 45 43 34 38 40 34 34 37 37 38 39 37 36 34 32 29 28 27 26 26 25 24 23 23 23 23 24
27 32 33 31 36 36 37 37 43 43 39 35 31 29 37 49 39 46 37 37 41 37 38 39 41 39 40 39 36 34 32 30 29 28 27 25 25 26 25 24 24 24 24
28 29 32 33 36 36 36 34 35 38 40 34 31 32 31 42 38 47 40 39 42 34 35 41 41 45 43 41 39 35 32 32 31 30 28 27 26 25 25 26 25 25 25
21 22 25 25 27 32 36 34 30 36 37 35 34 32 32 38 45 42 40 39 42 36 35 38 43 43 41 39 36 34 34 33 32 31 29 28 27 26 27 25 25 27 29
17 21 19 24 28 30 32 34 28 30 35 35 36 34 30 32 41 42 40 41 43 43 46 46 45 43 39 38 36 37 35 34 33 31 30 28 28 27 26 26 27 28 31
15 16 14 16 21 27 32 34 33 29 31 34 35 32 32 34 40 41 41 40 46 44 49 51 48 45 45 45 42 39 36 35 34 32 30 28 28 26 27 30 30 29 33
15 8 10 12 14 27 27 28 29 29 30 36 34 33 34 35 40 39 34 40 42 51 47 51 46 50 48 42 40 39 37 35 33 31 29 28 28 29 31 33 27 30 34
13 8 8 9 18 19 25 28 25 27 31 32 32 31 34 37 39 39 41 35 42 48 53 50 53 50 46 44 42 40 38 35 31 30 29 28 29 30 35 33 31 34 36
10 10 7 5 12 16 16 26 28 24 28 26 33 33 35 39 40 40 37 36 45 47 48 44 43 41 41 41 38 38 37 34 32 30 29 29 31 34 37 33 32 34 35
9 6 5 6 8 14 16 19 22 25 30 28 28 31 34 38 41 39 44 40 36 44 47 51 46 46 43 41 40 40 37 35 34 33 30 32 35 34 30 31 32 30 31
8 7 6 7 10 11 15 14 22 25 30 25 25 27 29 34 34 35 33 35 30 46 51 52 51 52 51 44 44 42 40 39 38 34 35 34 30 27 29 29 27 29 29
10 8 9 10 11 13 14 16 18 28 29 29 22 20 22 28 29 29 30 33 33 45 53 54 56 52 51 50 48 45 46 45 37 34 32 27 25 27 27 24 26 26 27
12 10 13 14 9 11 13 14 18 12 32 34 16 21 17 23 29 25 24 25 27 42 56 58 59 56 55 51 50 54 49 37 31 29 25 24 25 21 21 23 23 24 26
15 15 14 15 14 9 13 13 14 21 20 26 14 18 20 19 26 26 19 24 24 39 49 54 55 56 54 51 53 47 36 29 26 24 23 22 16 18 19 19 21 23 25
14 13 11 11 14 15 16 17 16 26 21 24 22 18 21 22 25 19 21 25 24 26 40 44 50 47 51 47 36 29 28 25 22 21 16 13 16 15 16 18 20 22 23
9 10 9 10 11 12 17 17 19 20 20 26 26 22 23 19 22 22 19 19 16 16 21 30 35 37 32 30 29 28 23 20 18 10 12 13 11 13 15 18 19 20 21
Wind_Direction
232 232 228 227 227 221 220 221 221 219 218 229 226 221 216 217 218 217 219 217 216 217 219 217 213 213 215 218 218 219 214 222 225 231 240 246 252 257 260 262 265 272 281
232 229 228 226 225 223 217 220 222 224 222 224 230 225 229 225 227 224 220 215 214 216 219 220 217 215 214 215 217 221 224 225 228 234 240 247 251 256 259 262 266 268 273
226 227 224 224 221 221 215 218 221 216 228 225 218 222 217 222 225 224 219 217 217 217 219 220 217 216 217 218 219 220 226 228 234 238 243 247 252 255 257 260 266 270 273
224 227 225 222 219 219 214 217 221 216 226 220 221 225 223 225 233 231 230 223 222 220 218 217 218 216 216 218 218 219 225 230 234 237 243 248 253 257 260 262 267 272 276
221 221 227 224 222 218 215 214 221 219 214 229 219 222 224 232 234 229 233 226 224 223 223 220 217 218 216 216 219 223 225 231 234 241 245 249 253 258 262 265 268 271 276
218 222 228 217 210 217 218 216 216 220 223 224 226 230 230 230 224 233 231 223 225 224 222 221 218 217 219 219 221 224 227 228 232 238 245 251 256 259 264 267 268 271 275
209 213 215 214 211 214 213 216 216 219 219 225 228 225 231 228 228 233 227 226 227 222 223 223 220 219 220 219 222 226 228 231 235 239 245 252 258 262 266 269 272 276 278
214 215 215 216 217 217 214 217 216 219 222 225 224 234 220 230 234 226 230 227 225 218 228 226 224 223 224 224 223 226 228 231 237 242 246 253 260 265 269 273 276 279 281
209 214 220 217 215 217 216 216 215 220 222 224 225 226 234 224 216 225 227 219 216 218 217 223 221 226 226 228 228 227 231 234 237 243 248 254 261 267 271 274 276 280 283
214 216 216 215 217 220 221 222 217 220 222 221 225 228 229 231 225 226 229 227 205 218 212 226 226 223 223 225 230 232 232 236 241 247 253 259 263 269 273 277 280 282 284
213 208 210 207 214 217 217 219 220 221 220 220 222 231 228 226 229 229 222 227 218 215 219 222 226 229 225 226 229 232 235 239 244 249 255 262 269 271 273 276 278 281 285
189 195 202 202 208 212 220 227 222 226 224 221 222 226 221 215 221 225 227 230 217 212 215 222 221 223 225 226 229 232 236 240 245 249 254 261 266 272 276 279 282 284 285
192 194 204 210 209 211 216 223 222 224 226 219 221 223 226 221 223 221 227 223 229 229 242 220 223 222 222 224 224 226 231 237 243 248 255 261 267 272 277 279 284 287 291
188 206 209 204 203 207 214 222 220 218 223 219 220 222 231 219 221 222 224 224 225 226 232 231 223 225 223 226 228 230 234 238 242 249 255 261 267 272 275 279 284 291 295
162 195 203 200 207 208 211 212 215 215 218 218 222 221 225 226 216 222 221 230 225 225 220 218 220 218 220 222 227 231 235 240 244 249 255 261 266 269 276 282 289 295 296
158 168 186 207 207 211 215 217 212 215 219 218 220 218 223 223 215 223 222 232 223 227 222 224 216 218 220 222 223 228 234 239 243 249 255 263 269 274 274 279 288 297 298
194 152 173 194 208 221 217 218 214 214 218 217 220 217 221 224 218 219 229 224 233 232 222 227 220 219 222 220 222 227 233 237 243 251 258 264 270 275 279 285 295 295 296
179 191 193 201 212 221 223 223 220 216 207 214 219 223 222 224 221 215 222 222 235 228 218 221 213 218 216 221 224 228 233 238 246 252 258 266 276 279 282 285 284 293 296
187 180 194 174 207 220 207 211 217 209 213 213 218 221 225 226 222 218 217 229 237 227 223 219 214 213 214 217 222 231 234 238 243 250 259 268 272 274 283 291 297 297 300
189 172 163 181 181 174 185 189 199 210 207 209 221 222 232 225 220 219 226 235 239 226 222 208 213 215 218 219 220 226 230 236 241 247 254 260 264 275 288 291 293 300 303
209 199 207 202 198 182 192 210 208 210 208 210 215 225 230 214 216 222 230 236 237 226 221 213 214 218 222 212 218 221 225 231 235 243 249 256 270 283 286 290 298 301 304
207 230 210 200 196 197 203 208 225 215 218 204 207 213 218 215 216 223 237 246 260 243 217 212 218 222 219 217 219 220 222 228 235 245 254 263 275 280 285 296 300 303 308
208 220 224 215 214 216 222 214 211 216 216 204 192 219 217 221 218 226 231 243 249 238 217 213 219 223 225 214 217 223 226 231 239 248 257 269 274 284 297 297 302 308 316
220 225 225 223 227 235 229 208 200 192 214 221 204 218 210 218 218 221 223 241 246 243 225 220 221 228 231 222 225 227 227 229 237 249 261 269 285 289 292 300 308 316 321
212 224 220 215 225 242 219 213 211 204 203 204 229 205 208 203 223 216 233 242 241 241 242 240 232 235 224 220 218 223 222 226 239 252 259 277 277 288 298 309 318 322 323
211 203 213 228 240 219 209 212 213 217 213 199 206 225 221 233 222 231 241 237 229 235 233 240 248 230 218 214 211 212 219 230 240 253 265 268 281 298 311 316 320 323 325